Location: Unspecified
(0.0000°N, 0.0000°E)
Time: 16:08:20
(UTC+00:00)

Tiros 1 despin weight - Pass Details

Date: 15 May 2026
Orbit: 555 x 591 km, 48.2° (Epoch: 1 June)

Event Time Altitude Azimuth Distance (km) Brightness Sun altitude
Rises 12:29:40 0° 357° (N) 2,718 ? 69.4°
Reaches altitude 10° 12:33:34 10° 33° (NNE) 1,835 ? 69.0°
Maximum altitude 12:34:46 11° 50° (NE) 1,772 ? 68.8°
Drops below altitude 10° 12:35:58 10° 67° (ENE) 1,843 ? 68.7°
Sets 12:39:53 0° 103° (ESE) 2,753 ? 68.3°
